This is the latest recevied weather packets stored in our database for station/object EA3KZ-1. If no packets are shown the sender has not sent any weather packets the latest 10 day(s).
| Time | Temp. | Humidity | Pressure | Rain* | Wind** | Luminosity | Snow |
|---|---|---|---|---|---|---|---|
| 1777744862 | 16.11° C | 72% | 1015 hPa | 0 mm | - | - | - |
| 1777744260 | 16.11° C | 70% | 1015 hPa | 0 mm | - | - | - |
| 1777743658 | 16.67° C | 68% | 1015 hPa | 0 mm | - | - | - |
| 1777743055 | 16.67° C | 69% | 1015.1 hPa | 0 mm | - | - | - |
| 1777742452 | 16.67° C | 71% | 1015.3 hPa | 0 mm | - | - | - |
| 1777741849 | 16.67° C | 69% | 1015.4 hPa | 0 mm | - | - | - |
| 1777741247 | 16.67° C | 71% | 1015.3 hPa | 0 mm | - | - | - |
| 1777740644 | 16.67° C | 68% | 1015.6 hPa | 0 mm | - | - | - |
| 1777740041 | 17.22° C | 65% | 1015.8 hPa | 0 mm | - | - | - |
| 1777739439 | 17.22° C | 67% | 1015.7 hPa | 0 mm | - | - | - |
| 1777738836 | 16.67° C | 67% | 1015.6 hPa | 0 mm | - | - | - |
| 1777738234 | 17.22° C | 65% | 1015.9 hPa | 0 mm | - | - | - |
| 1777737631 | 17.22° C | 65% | 1016.2 hPa | 0 mm | - | - | - |
| 1777737028 | 17.78° C | 61% | 1016.1 hPa | 0 mm | - | - | - |
| 1777736426 | 17.78° C | 62% | 1016 hPa | 0 mm | - | - | - |
| 1777735823 | 17.22° C | 66% | 1016.1 hPa | 0 mm | - | - | - |
| 1777735221 | 17.78° C | 66% | 1016.4 hPa | 0 mm | - | - | - |
| 1777734618 | 18.33° C | 68% | 1016.3 hPa | 0 mm | - | - | - |
| 1777734015 | 18.33° C | 69% | 1016.2 hPa | 0 mm | - | - | - |
| 1777733473 | 18.33° C | 68% | 1016.4 hPa | 0 mm | - | - | - |
| 1777732870 | 18.33° C | 70% | 1016.4 hPa | 0 mm | - | - | - |
| 1777732268 | 18.33° C | 67% | 1016.6 hPa | 0 mm | - | - | - |
| 1777731665 | 18.33° C | 69% | 1016.7 hPa | 0 mm | - | - | - |
| 1777731062 | 17.78° C | 72% | 1017 hPa | 0 mm | - | - | - |
| 1777730460 | 17.78° C | 71% | 1017.2 hPa | 0 mm | - | - | - |
* Rain latest hour (hover to see other rain measurements)
** Current wind speed in m/s (hover to see current wind gust speed)